YAOGAN-4

Last updated on Fri Jun 19 2026 20:04:01 GMT+0000 (Coordinated Universal Time)

1 33446U 08061A 26170.52829743 .00000762 00000+0 99682-4 0 9993 2 33446 97.9307 104.0213 0015654 65.5289 294.7556 14.83203795946014
UTC large
Height (km)
Speed (km/s)
/
Latitude / Longitude
Inclination (degrees)
Orbital Period (minutes)
Azimuth
Elevation
Range (km)
Doppler Factor

Next 0 passes for location: London (51.5072 / 0.1276)

Sorry there are no passes over London.